When you browse on this site, cookies collect data to enhance your experience and personalize the content and advertising you see.
Visit our Privacy Policy to learn more. By continuing to use the site, you agree to this use of cookies and data.
  • In Hungary
  • List of Countries
  • For 7 days
  • Water Temperature
  • Satellite Maps
  • Weather Map
  • News
  • Weather Widgets
  • user-avatar
    Login

    Hourly Weather Sarikamis

    Today, 16 February, Saturday

    Time Temperature Precipitation Wind Pressure Humidity
    00:00 -10°C° 0 mm 1 mps 576 mmHg 94%
    01:00 -10°C° 0 mm 1 mps 576 mmHg 94%
    02:00 -10°C° 0 mm 1 mps 576 mmHg 94%
    03:00 -10°C° 0 mm 1 mps 576 mmHg 95%
    04:00 -11°C° 0 mm 1 mps 576 mmHg 95%
    05:00 -11°C° 0 mm 1 mps 576 mmHg 95%
    06:00 -12°C° 0 mm 1 mps 576 mmHg 95%
    07:00 -11°C° 0 mm 1 mps 577 mmHg 94%
    08:00 -10°C° 0 mm 1 mps 577 mmHg 94%
    09:00 -9°C° 0 mm 2 mps 578 mmHg 93%
    10:00 -8°C° 0.1 mm 2 mps 579 mmHg 90%
    11:00 -7°C° 0.1 mm 2 mps 579 mmHg 88%
    12:00 -6°C° 0.1 mm 2 mps 579 mmHg 86%
    13:00 -6°C° 0 mm 2 mps 579 mmHg 85%
    14:00 -5°C° 0 mm 2 mps 579 mmHg 84%
    15:00 -7°C° 0 mm 3 mps 579 mmHg 85%
    16:00 -7°C° 0 mm 2 mps 579 mmHg 86%
    17:00 -8°C° 0 mm 2 mps 578 mmHg 88%
    18:00 -10°C° 0 mm 2 mps 578 mmHg 90%
    19:00 -10°C° 0 mm 2 mps 578 mmHg 90%
    20:00 -12°C° 0 mm 2 mps 578 mmHg 91%
    21:00 -12°C° 0 mm 2 mps 579 mmHg 92%
    22:00 -12°C° 0 mm 2 mps 579 mmHg 92%
    23:00 -12°C° 0 mm 2 mps 579 mmHg 92%

    Tomorrow, 17 February, Sunday

    Time Temperature Precipitation Wind Pressure Humidity
    00:00 -12°C° 0 mm 2 mps 579 mmHg 92%
    01:00 -13°C° 0 mm 2 mps 579 mmHg 93%
    02:00 -13°C° 0 mm 2 mps 578 mmHg 93%
    03:00 -14°C° 0 mm 2 mps 578 mmHg 93%
    04:00 -14°C° 0 mm 2 mps 578 mmHg 93%
    05:00 -14°C° 0 mm 2 mps 578 mmHg 93%
    06:00 -14°C° 0 mm 2 mps 578 mmHg 93%
    07:00 -14°C° 0 mm 2 mps 579 mmHg 92%
    08:00 -13°C° 0 mm 2 mps 579 mmHg 91%
    09:00 -12°C° 0 mm 2 mps 580 mmHg 90%
    10:00 -10°C° 0 mm 2 mps 580 mmHg 88%
    11:00 -9°C° 0 mm 2 mps 581 mmHg 85%
    12:00 -7°C° 0 mm 2 mps 581 mmHg 82%
    13:00 -7°C° 0 mm 2 mps 581 mmHg 82%
    14:00 -7°C° 0 mm 2 mps 581 mmHg 81%
    15:00 -6°C° 0 mm 2 mps 581 mmHg 81%
    16:00 -8°C° 0 mm 2 mps 580 mmHg 83%
    17:00 -10°C° 0 mm 2 mps 579 mmHg 85%
    18:00 -12°C° 0 mm 2 mps 579 mmHg 86%
    19:00 -13°C° 0 mm 2 mps 579 mmHg 87%
    20:00 -14°C° 0 mm 2 mps 579 mmHg 88%
    21:00 -14°C° 0 mm 2 mps 579 mmHg 89%
    22:00 -14°C° 0 mm 2 mps 579 mmHg 90%
    23:00 -15°C° 0 mm 2 mps 579 mmHg 91%

    Day after tomorrow, 18 February, Monday

    Time Temperature Precipitation Wind Pressure Humidity
    00:00 -15°C° 0 mm 2 mps 579 mmHg 92%
    01:00 -15°C° 0 mm 2 mps 578 mmHg 92%
    02:00 -15°C° 0 mm 2 mps 578 mmHg 92%
    03:00 -15°C° 0 mm 2 mps 578 mmHg 93%
    04:00 -15°C° 0 mm 2 mps 578 mmHg 93%
    05:00 -15°C° 0 mm 2 mps 578 mmHg 93%
    06:00 -15°C° 0 mm 2 mps 577 mmHg 93%
    07:00 -14°C° 0 mm 2 mps 578 mmHg 92%
    08:00 -13°C° 0 mm 2 mps 578 mmHg 91%
    09:00 -12°C° 0 mm 2 mps 579 mmHg 90%
    10:00 -9°C° 0 mm 2 mps 579 mmHg 88%
    11:00 -8°C° 0 mm 2 mps 579 mmHg 87%
    12:00 -7°C° 0 mm 3 mps 579 mmHg 85%
    13:00 -7°C° 0 mm 3 mps 579 mmHg 84%
    14:00 -6°C° 0 mm 3 mps 579 mmHg 83%
    15:00 -6°C° 0 mm 3 mps 578 mmHg 83%
    16:00 -6°C° 0 mm 2 mps 578 mmHg 85%
    17:00 -7°C° 0 mm 2 mps 577 mmHg 87%
    18:00 -9°C° 0 mm 2 mps 577 mmHg 89%
    19:00 -9°C° 0 mm 2 mps 577 mmHg 90%
    20:00 -10°C° 0 mm 2 mps 577 mmHg 91%
    21:00 -10°C° 0 mm 2 mps 577 mmHg 92%
    22:00 -10°C° 0 mm 2 mps 577 mmHg 92%
    23:00 -10°C° 0 mm 2 mps 577 mmHg 92%

    19 February, Tuesday

    Time Temperature Precipitation Wind Pressure Humidity
    00:00 -10°C° 0 mm 2 mps 577 mmHg 93%
    01:00 -12°C° 0 mm 2 mps 577 mmHg 92%
    02:00 -12°C° 0 mm 2 mps 576 mmHg 92%
    03:00 -13°C° 0 mm 2 mps 576 mmHg 92%
    04:00 -13°C° 0 mm 2 mps 576 mmHg 91%
    05:00 -13°C° 0 mm 2 mps 576 mmHg 91%
    06:00 -14°C° 0 mm 2 mps 576 mmHg 91%
    07:00 -13°C° 0 mm 2 mps 576 mmHg 91%
    08:00 -12°C° 0 mm 2 mps 577 mmHg 91%
    09:00 -10°C° 0 mm 2 mps 578 mmHg 91%
    10:00 -9°C° 0 mm 2 mps 579 mmHg 88%
    11:00 -7°C° 0 mm 2 mps 579 mmHg 85%
    12:00 -7°C° 0 mm 3 mps 580 mmHg 82%
    13:00 -7°C° 0 mm 3 mps 580 mmHg 81%
    14:00 -6°C° 0 mm 3 mps 580 mmHg 79%
    15:00 -6°C° 0 mm 3 mps 581 mmHg 78%
    16:00 -7°C° 0 mm 2 mps 580 mmHg 80%
    17:00 -9°C° 0 mm 2 mps 579 mmHg 82%
    18:00 -12°C° 0 mm 2 mps 579 mmHg 84%
    19:00 -14°C° 0 mm 2 mps 579 mmHg 85%
    20:00 -15°C° 0 mm 2 mps 579 mmHg 87%
    21:00 -16°C° 0 mm 2 mps 579 mmHg 88%
    22:00 -16°C° 0 mm 2 mps 579 mmHg 87%
    23:00 -15°C° 0 mm 1 mps 579 mmHg 87%

    20 February, Wednesday

    Time Temperature Precipitation Wind Pressure Humidity
    00:00 -15°C° 0 mm 1 mps 579 mmHg 87%
    01:00 -16°C° 0 mm 1 mps 579 mmHg 84%
    02:00 -16°C° 0 mm 1 mps 579 mmHg 81%
    03:00 -16°C° 0 mm 1 mps 579 mmHg 79%
    04:00 -16°C° 0 mm 1 mps 578 mmHg 75%
    05:00 -16°C° 0 mm 1 mps 578 mmHg 72%
    06:00 -16°C° 0 mm 1 mps 578 mmHg 69%
    07:00 -15°C° 0 mm 1 mps 579 mmHg 68%
    08:00 -13°C° 0 mm 1 mps 580 mmHg 67%
    09:00 -11°C° 0 mm 1 mps 581 mmHg 67%
    10:00 -10°C° 0 mm 1 mps 582 mmHg 67%
    11:00 -8°C° 0 mm 1 mps 582 mmHg 66%
    12:00 -6°C° 0 mm 1 mps 583 mmHg 66%
    13:00 -6°C° 0 mm 1 mps 582 mmHg 69%
    14:00 -4°C° 0 mm 1 mps 582 mmHg 71%
    15:00 -4°C° 0 mm 1 mps 582 mmHg 74%
    16:00 -7°C° 0 mm 1 mps 581 mmHg 74%
    17:00 -10°C° 0 mm 1 mps 580 mmHg 75%
    18:00 -12°C° 0 mm 0 mps 579 mmHg 75%
    19:00 -13°C° 0 mm 1 mps 579 mmHg 72%
    20:00 -13°C° 0 mm 1 mps 579 mmHg 68%
    21:00 -14°C° 0 mm 1 mps 579 mmHg 65%
    22:00 -14°C° 0 mm 1 mps 579 mmHg 63%
    23:00 -14°C° 0 mm 1 mps 579 mmHg 60%

    21 February, Thursday

    Time Temperature Precipitation Wind Pressure Humidity
    00:00 -14°C° 0 mm 1 mps 579 mmHg 58%
    01:00 -15°C° 0 mm 1 mps 579 mmHg 58%
    02:00 -15°C° 0 mm 1 mps 578 mmHg 57%
    03:00 -15°C° 0 mm 1 mps 578 mmHg 57%
    04:00 -15°C° 0 mm 1 mps 578 mmHg 57%
    05:00 -15°C° 0 mm 1 mps 578 mmHg 57%
    06:00 -15°C° 0 mm 1 mps 578 mmHg 57%
    07:00 -14°C° 0 mm 1 mps 579 mmHg 59%
    08:00 -12°C° 0 mm 1 mps 579 mmHg 62%
    09:00 -11°C° 0 mm 1 mps 580 mmHg 65%
    10:00 -9°C° 0 mm 1 mps 581 mmHg 64%
    11:00 -7°C° 0 mm 1 mps 581 mmHg 63%
    12:00 -6°C° 0 mm 1 mps 581 mmHg 62%
    13:00 -4°C° 0 mm 1 mps 581 mmHg 65%
    14:00 -4°C° 0 mm 1 mps 581 mmHg 68%
    15:00 -3°C° 0 mm 1 mps 581 mmHg 71%
    16:00 -6°C° 0 mm 1 mps 580 mmHg 72%
    17:00 -8°C° 0 mm 1 mps 579 mmHg 74%
    18:00 -11°C° 0 mm 1 mps 579 mmHg 75%
    19:00 -11°C° 0 mm 1 mps 579 mmHg 76%
    20:00 -12°C° 0 mm 1 mps 579 mmHg 76%
    21:00 -13°C° 0 mm 1 mps 579 mmHg 76%
    22:00 -13°C° 0 mm 1 mps 579 mmHg 78%
    23:00 -13°C° 0 mm 1 mps 579 mmHg 79%
    Show more